This is the latest recevied weather packets stored in our database for station/object KC1OEK-13. If no packets are shown the sender has not sent any weather packets the latest 10 day(s).
| Time | Temp. | Humidity | Pressure | Rain* | Wind** | Luminosity | Snow |
|---|---|---|---|---|---|---|---|
| 1777617909 | 5° C | 84% | 1011.7 hPa | 0 mm | - | 0 W/m² | - |
| 1777617604 | 5° C | 84% | 1011.5 hPa | 0 mm | - | 0 W/m² | - |
| 1777617301 | 5° C | 85% | 1011.5 hPa | 0 mm | - | 0 W/m² | - |
| 1777616999 | 5.56° C | 84% | 1011.4 hPa | 0 mm | - | 0 W/m² | - |
| 1777616693 | 6.11° C | 80% | 1011.5 hPa | 0 mm | - | 0 W/m² | - |
| 1777616388 | 6.11° C | 80% | 1011.5 hPa | 0 mm | - | 0 W/m² | - |
| 1777616085 | 5.56° C | 80% | 1011.3 hPa | 0 mm | - | 0 W/m² | - |
| 1777615783 | 5.56° C | 82% | 1011.2 hPa | 0 mm | - | 0 W/m² | - |
| 1777615479 | 5.56° C | 84% | 1011.3 hPa | 0 mm | - | 0 W/m² | - |
| 1777615179 | 5.56° C | 83% | 1011.2 hPa | 0 mm | - | 0 W/m² | - |
| 1777614875 | 6.11° C | 83% | 1011.5 hPa | 0 mm | - | 0 W/m² | - |
| 1777614571 | 5.56° C | 83% | 1011.5 hPa | 0 mm | - | 0 W/m² | - |
| 1777614266 | 5.56° C | 84% | 1011.6 hPa | 0 mm | - | 0 W/m² | - |
| 1777613962 | 6.11° C | 85% | 1011.4 hPa | 0 mm | - | 0 W/m² | - |
| 1777613659 | 6.11° C | 84% | 1011.6 hPa | 0 mm | - | 0 W/m² | - |
| 1777613356 | 6.67° C | 83% | 1011.5 hPa | 0 mm | - | 0 W/m² | - |
| 1777613052 | 6.67° C | 80% | 1011.5 hPa | 0 mm | - | 0 W/m² | - |
| 1777612749 | 6.67° C | 80% | 1011.5 hPa | 0 mm | - | 0 W/m² | - |
| 1777612444 | 6.67° C | 80% | 1011.6 hPa | 0 mm | - | 0 W/m² | - |
| 1777612140 | 6.67° C | 81% | 1011.5 hPa | 0 mm | - | 0 W/m² | - |
| 1777611835 | 7.22° C | 80% | 1011.6 hPa | 0 mm | - | 0 W/m² | - |
| 1777611531 | 7.22° C | 78% | 1011.6 hPa | 0 mm | - | 0 W/m² | - |
| 1777611229 | 6.67° C | 79% | 1011.6 hPa | 0 mm | - | 0 W/m² | - |
| 1777610925 | 6.67° C | 83% | 1011.8 hPa | 0 mm | - | 0 W/m² | - |
| 1777610620 | 6.11° C | 84% | 1011.8 hPa | 0 mm | - | 0 W/m² | - |
* Rain latest hour (hover to see other rain measurements)
** Current wind speed in m/s (hover to see current wind gust speed)